CAPE
585 548 489 412 493 422 496 371 363 424 583 526 399 410 364 315 350 356 290 322 453 500 479 530 574 512 427 410 475 372 384 466 413 448 613 726 968 933 716 683 487 749
545 460 397 373 384 402 359 372 353 423 530 506 399 362 413 502 476 328 420 522 491 517 606 591 503 391 425 421 408 361 361 464 452 325 378 362 315 343 543 629 441 431
389 380 394 346 337 280 313 334 292 358 531 460 431 357 461 572 516 494 517 568 585 643 598 558 507 509 543 451 457 443 508 707 606 451 432 429 344 369 728 710 510 461
376 386 387 378 340 321 300 247 338 457 567 511 480 378 557 432 540 622 665 701 667 599 651 603 552 561 568 543 555 548 469 456 451 442 654 691 425 670 968 994 809 641
470 468 413 368 499 295 206 240 312 414 452 511 453 411 444 432 512 690 718 686 601 626 604 563 586 574 578 556 522 539 487 392 384 672 910 909 810 920 1027 1047 1070 1084
384 352 390 323 359 404 246 251 399 488 417 455 471 482 589 545 738 683 778 731 635 553 535 556 608 497 490 593 595 550 427 502 629 931 1168 1225 1058 971 768 993 1116 1125
516 380 389 376 476 515 434 388 520 493 459 463 537 553 648 745 621 653 683 706 595 590 602 600 620 703 638 425 306 449 537 979 971 1018 1008 1194 1108 1002 900 1069 998 943
458 320 271 276 29 273 397 489 485 457 469 489 535 648 600 686 566 600 602 608 661 704 662 624 764 741 558 430 512 560 973 1182 1211 1092 906 1129 1295 1167 1185 1125 1393 1229
233 331 452 431 409 427 470 495 520 512 560 599 667 658 602 619 622 538 627 686 712 720 694 860 865 791 766 749 790 805 1000 1070 1115 922 955 1237 1332 1184 1062 1111 1229 1265
299 318 317 486 605 496 548 460 538 486 451 624 682 632 760 684 557 537 630 667 641 618 657 731 830 891 912 1126 1146 1054 930 916 1026 1044 984 1028 1068 1298 1147 1171 1255 1257
103 375 509 578 555 524 422 353 359 430 578 717 623 711 655 626 532 524 572 496 501 535 600 683 754 741 786 868 974 1020 885 972 922 912 1043 932 1213 1221 1165 1179 1217 1198
178 417 614 579 611 562 509 420 356 456 538 678 694 656 712 604 465 440 406 384 216 324 469 626 611 678 739 709 646 726 900 993 944 1000 892 803 900 995 1071 1181 1116 1114
285 366 485 553 529 530 526 540 441 410 470 572 626 680 680 530 454 436 332 268 225 174 403 501 512 544 608 568 503 548 648 650 585 554 508 560 635 774 864 952 1089 1049
276 336 394 485 466 470 497 565 520 416 426 485 572 654 677 526 445 371 399 337 300 84 235 207 306 274 289 375 359 354 328 347 342 336 317 367 397 418 559 652 721 897
152 244 307 339 366 373 464 482 519 504 498 551 622 626 666 636 425 360 386 348 250 192 134 52 57 109 138 190 145 130 192 165 189 219 259 280 242 232 250 371 414 439
169 162 76 161 265 255 264 364 394 541 523 488 532 536 634 580 234 334 320 235 163 168 163 0 0 0 0 0 14 80 102 104 169 204 218 260 236 220 258 326 356 355
163 64 50 84 94 2 173 264 162 274 416 383 377 481 543 391 134 226 196 130 127 54 0 0 0 70 58 72 0 0 94 132 131 165 228 285 289 237 300 348 283 192
81 1 34 36 25 63 40 51 118 231 384 418 335 428 338 198 102 149 141 36 21 0 0 0 0 68 90 0 0 0 20 160 197 190 224 274 271 266 310 304 264 195
1 1 0 1 11 18 45 36 28 177 339 292 332 337 249 177 137 77 33 0 0 0 0 0 43 78 77 0 0 0 0 81 178 211 246 274 233 285 281 204 186 144
1 1 1 2 2 46 40 81 58 179 309 332 287 210 155 86 18 0 8 12 0 0 18 27 43 44 38 8 0 0 0 39 202 250 265 246 289 213 166 131 178 138
2 1 2 2 1 6 17 82 129 138 48 43 88 111 68 23 2 26 66 86 75 10 35 3 48 46 35 14 0 0 3 55 190 186 176 209 187 228 208 190 191 212
1 2 1 2 1 1 38 50 112 67 64 31 40 40 50 27 13 27 43 59 72 75 76 52 57 63 45 21 0 0 50 121 126 133 134 118 105 90 26 86 8 7
1 2 2 2 0 1 10 8 20 48 41 35 34 25 23 22 12 26 39 63 40 21 78 75 87 83 65 20 17 50 88 105 113 99 83 94 102 97 80 15 37 10
2 2 2 2 1 1 1 1 1 0 0 8 7 8 4 15 53 64 61 60 63 64 91 100 98 88 58 47 58 72 95 111 104 96 96 108 123 138 64 0 6 0
1 2 2 1 1 8 2 2 1 3 4 3 7 8 12 14 30 47 44 61 49 52 68 75 89 53 72 78 72 77 85 78 74 59 70 0 0 0 32 0 0 1
1 2 2 2 1 7 2 5 1 1 0 0 1 0 3 19 14 21 45 44 41 46 74 85 79 108 136 155 126 121 78 0 0 0 0 0 0 0 0 0 0 0
Wind_Speed
24 24 22 21 20 18 20 22 22 17 15 15 13 14 11 10 13 14 13 15 14 13 12 13 13 12 12 12 14 15 13 12 12 12 12 12 13 12 11 11 13 13
25 23 25 25 22 21 21 23 21 18 15 16 14 13 12 12 10 12 13 11 12 11 11 12 12 10 12 14 16 14 13 9 10 14 14 11 14 10 10 13 12 14
28 26 25 25 24 21 19 21 21 20 16 17 15 12 13 12 10 10 11 11 11 11 10 11 11 12 13 14 15 13 11 11 13 15 13 12 12 12 11 14 13 13
26 27 27 25 24 21 20 21 24 22 20 19 17 15 14 14 13 12 12 12 11 10 10 10 11 13 13 15 15 15 17 14 15 15 15 15 13 12 13 14 17 14
23 22 24 25 24 20 20 21 23 23 21 17 16 16 18 19 18 16 18 15 12 11 13 13 14 14 16 17 15 15 13 13 14 14 15 15 15 15 16 16 16 16
22 20 21 23 22 23 22 20 22 24 22 18 15 15 18 19 18 16 16 16 13 13 15 17 15 16 17 16 15 15 14 13 15 14 16 17 17 17 17 16 17 17
21 22 23 24 22 22 21 20 22 24 23 17 14 13 15 14 14 16 17 17 16 17 17 17 18 19 17 17 17 16 14 15 17 16 16 18 18 18 17 17 17 18
20 21 21 23 nan 20 19 19 21 22 22 17 11 10 12 12 13 15 18 21 20 19 20 20 20 20 18 18 18 17 17 19 19 18 17 19 18 18 19 18 18 17
17 14 15 18 18 19 19 17 20 23 22 16 11 14 12 12 14 18 19 21 22 22 23 23 21 21 20 19 19 20 21 21 21 20 20 20 18 18 19 19 18 18
13 10 10 14 15 18 18 20 24 24 21 14 12 16 16 17 20 21 21 22 24 25 24 24 23 23 22 21 21 21 22 23 23 22 21 20 19 20 20 19 18 19
11 10 8 10 14 17 18 20 22 20 18 13 15 18 22 24 25 24 20 21 22 25 25 24 24 24 24 23 22 22 23 24 24 24 23 22 22 22 21 20 20 20
10 10 9 6 13 16 18 19 19 18 18 19 19 21 22 23 24 24 22 19 21 25 25 25 25 25 24 22 22 23 24 25 26 26 26 26 25 23 22 21 21 21
10 7 7 3 7 12 16 17 16 17 19 21 21 22 23 23 24 22 24 20 23 25 26 26 26 25 24 23 23 24 25 26 27 28 28 28 26 25 23 22 22 22
11 9 6 4 4 8 11 14 14 15 18 20 20 23 22 22 23 24 26 26 26 nan 28 28 26 25 25 24 25 25 26 28 28 29 29 29 28 26 25 25 23 22
12 10 8 6 6 7 9 10 11 14 17 19 20 23 24 25 27 28 27 29 27 28 28 nan nan 25 24 26 27 27 28 29 29 29 30 30 29 28 27 27 25 25
13 12 nan 9 9 10 10 10 11 15 18 20 22 26 27 27 27 29 28 30 29 29 29 nan nan nan nan nan nan nan 29 29 30 31 31 31 30 30 29 28 27 27
16 nan nan nan nan nan 18 18 21 23 23 23 26 29 31 30 29 32 34 32 32 nan nan nan nan nan nan nan nan nan nan 30 30 31 31 30 30 30 30 29 28 29
nan nan nan nan nan nan nan nan 25 23 23 23 26 29 30 31 32 34 36 nan nan nan nan nan nan nan nan nan nan nan nan 31 31 30 29 28 29 30 29 29 29 29
nan nan nan nan nan nan nan nan nan 26 24 25 27 26 28 31 31 nan nan nan nan nan nan nan nan nan nan nan nan nan nan nan 30 29 29 29 29 29 29 29 28 29
nan nan nan nan nan nan nan nan nan 26 26 24 25 26 28 nan nan nan nan nan nan nan nan nan nan nan nan nan nan nan nan nan 31 31 30 30 29 29 28 29 30 30
nan nan nan nan nan nan nan nan 16 20 nan nan nan 26 nan nan nan nan nan nan nan nan nan nan nan nan nan nan nan nan nan nan 33 32 31 31 29 29 29 30 31 31
nan nan nan nan nan nan nan nan 18 nan nan nan nan nan nan nan nan nan nan nan nan nan nan nan nan nan nan nan nan nan nan 32 33 33 33 31 30 nan nan nan nan nan
nan nan nan nan nan nan nan nan nan nan nan nan nan nan nan nan nan nan nan nan nan nan nan nan nan nan nan nan nan nan nan 35 35 nan nan nan 30 nan nan nan nan nan
nan nan nan nan nan nan nan nan nan nan nan nan nan nan nan nan nan nan nan nan nan nan nan 45 nan nan nan nan nan nan nan 39 37 nan nan 30 32 33 nan nan nan nan
nan nan nan nan nan nan nan nan nan nan nan nan nan nan nan nan nan nan nan nan nan nan nan nan nan nan nan nan nan nan nan nan nan nan nan nan nan nan nan nan nan nan
nan nan nan nan nan nan nan nan nan nan nan nan nan nan nan nan nan nan nan nan nan nan nan nan nan 45 44 45 46 45 nan nan nan nan nan nan nan nan nan nan nan nan
Wind_Direction
268 268 259 252 249 252 261 266 260 250 252 259 254 250 250 261 266 273 270 263 279 283 261 238 230 227 231 232 231 231 221 217 240 244 254 255 252 256 266 278 268 267
263 261 264 262 254 249 257 264 258 247 247 255 248 245 245 248 267 271 264 265 271 284 277 263 260 250 244 235 230 225 220 218 238 247 252 260 259 265 260 271 281 274
267 263 260 261 259 257 265 276 264 252 244 246 242 243 247 249 259 264 259 258 264 272 274 271 258 242 234 227 228 224 214 220 231 241 248 254 254 258 267 272 265 265
268 267 265 265 264 265 269 270 262 249 236 238 239 239 243 248 254 258 255 254 254 257 250 246 235 227 229 229 228 225 222 216 226 238 245 248 260 263 265 271 275 285
260 257 261 265 264 262 262 264 259 251 244 236 226 235 235 242 246 244 243 246 241 239 234 234 234 233 234 237 240 240 241 236 242 249 255 258 261 263 263 266 272 276
260 247 251 258 261 261 257 257 259 255 252 243 232 230 238 233 246 252 253 248 238 237 241 242 240 236 241 246 249 247 242 240 246 257 258 261 261 260 261 268 272 273
254 253 256 256 256 254 250 256 259 259 262 262 242 236 250 253 249 253 256 251 243 240 247 250 248 246 243 247 245 246 244 252 258 259 263 261 262 264 263 267 269 269
256 260 261 260 nan 249 244 247 259 258 262 269 260 244 251 261 260 254 253 254 248 245 246 247 248 252 248 251 255 259 263 257 262 263 264 263 261 264 262 259 263 269
279 274 248 243 248 245 243 248 256 254 247 247 240 234 232 239 251 249 247 252 253 249 247 244 246 254 260 265 267 269 266 262 261 263 263 262 263 264 264 262 264 267
304 307 253 233 236 235 238 248 256 255 250 250 237 230 233 234 240 241 235 241 249 251 250 247 246 247 252 256 262 263 264 264 262 260 260 261 261 260 261 262 264 265
305 325 304 242 233 230 229 242 254 251 249 259 259 251 248 248 249 248 236 227 237 250 250 249 248 249 250 252 254 256 261 261 261 260 259 259 256 255 257 261 264 266
284 313 325 264 228 229 234 240 244 243 246 249 253 252 255 258 263 261 249 231 235 245 248 249 249 249 250 252 256 258 257 257 257 258 257 255 254 254 256 259 265 268
287 299 319 295 232 231 236 238 240 243 249 255 255 253 256 258 260 258 249 241 234 239 244 248 248 247 248 250 256 258 259 259 258 258 257 254 254 256 258 261 265 269
293 299 305 281 231 229 233 233 237 245 252 257 257 252 254 257 257 255 247 241 239 nan 239 242 245 246 250 253 254 256 257 258 261 261 260 258 257 257 258 261 264 267
287 286 287 281 263 244 234 233 241 253 259 261 256 249 245 247 246 242 242 244 242 242 243 nan nan 243 251 255 254 253 255 260 263 264 264 261 259 257 258 260 261 258
274 275 nan 276 274 264 254 245 246 255 259 261 257 252 249 245 245 247 241 243 245 245 243 nan nan nan nan nan nan nan 257 259 262 264 264 263 263 262 260 260 259 256
267 nan nan nan nan nan 251 244 241 242 241 242 242 244 245 244 243 243 239 237 241 nan nan nan nan nan nan nan nan nan nan 264 266 263 262 264 266 267 265 264 261 259
nan nan nan nan nan nan nan nan 251 248 243 242 242 242 241 239 237 238 238 nan nan nan nan nan nan nan nan nan nan nan nan 266 265 263 261 263 265 266 265 263 262 259
nan nan nan nan nan nan nan nan nan 246 242 242 245 243 242 240 236 nan nan nan nan nan nan nan nan nan nan nan nan nan nan nan 266 265 263 263 264 266 265 264 263 261
nan nan nan nan nan nan nan nan nan 244 241 240 244 242 242 nan nan nan nan nan nan nan nan nan nan nan nan nan nan nan nan nan 269 267 264 264 266 267 267 269 267 265
nan nan nan nan nan nan nan nan 252 245 nan nan nan 241 nan nan nan nan nan nan nan nan nan nan nan nan nan nan nan nan nan nan 265 265 263 260 259 261 265 266 265 264
nan nan nan nan nan nan nan nan 261 nan nan nan nan nan nan nan nan nan nan nan nan nan nan nan nan nan nan nan nan nan nan 254 256 259 262 262 262 nan nan nan nan nan
nan nan nan nan nan nan nan nan nan nan nan nan nan nan nan nan nan nan nan nan nan nan nan nan nan nan nan nan nan nan nan 251 250 nan nan nan 263 nan nan nan nan nan
nan nan nan nan nan nan nan nan nan nan nan nan nan nan nan nan nan nan nan nan nan nan nan 242 nan nan nan nan nan nan nan 251 252 nan nan 254 259 257 nan nan nan nan
nan nan nan nan nan nan nan nan nan nan nan nan nan nan nan nan nan nan nan nan nan nan nan nan nan nan nan nan nan nan nan nan nan nan nan nan nan nan nan nan nan nan
nan nan nan nan nan nan nan nan nan nan nan nan nan nan nan nan nan nan nan nan nan nan nan nan nan 235 231 232 242 246 nan nan nan nan nan nan nan nan nan nan nan nan